Location: Ash Swamp
(41.5170°N, 74.6157°W)
Time: 02:45:58
(UTC+00:00)

Okean 1-7 - Pass Details

Date: 14 July 2020
Orbit: 591 x 618 km, 82.5° (Epoch: 14 August)

Event Time Altitude Azimuth Distance (km) Brightness Sun altitude
Rises 06:03:29 0° 356° (N) 2,902 7.7 -25.4°
Reaches altitude 10° 06:05:46 10° 1° (N) 1,992 6.6 -25.3°
Maximum altitude 06:10:05 55° 79° (E) 745 3.5 -25.1°
Enters shadow 06:10:17 54° 91° (E) 749 3.4 -25.1°
